Location: *
(40.7873°S, 98.7174°E)
Time: 09:45:47
(UTC+00:00)

COSMOS 2406 - Pass Details

Date: 24 May 2022
Orbit: 843 x 864 km, 71.0° (Epoch: 04 July)

Event Time Altitude Azimuth Distance (km) Brightness Sun altitude
Rises 10:46:36 0° 7° (N) 3,404 6.6 -7.1°
Reaches altitude 10° 10:49:18 10° 17° (NNE) 2,474 5.7 -7.6°
Maximum altitude 10:54:12 31° 77° (ENE) 1,462 4.0 -8.4°
Drops below altitude 10° 10:59:09 10° 136° (SE) 2,493 5.1 -9.3°
Enters shadow 10:59:51 - 140° (SE) 2,730 5.3 -9.4°
